Location: High Cliff State Park
(44.1557°N, 88.2948°W)
Time: 11:27:37
(UTC-06:00)

Amateur Radio Satellites - All Passes

Search period start: 24 January 2017 10:57
Search period end: 25 January 2017 10:57
Location: High Cliff State Park, 44.1557°N, 88.2948°W

Satellite Date Start Highest point End Downlink Frequencies (MHz)
Time Altitude Azimuth
ESTCUBE 1 24 Jan 11:03:51 11:08:12 44° 99° (E) 11:12:31 437.505/2401.250
NANOSAT C BR1 24 Jan 11:04:34 11:08:40 59° 259° (WSW) 11:12:49 145.865
JAS-2 24 Jan 11:10:40 11:15:17 28° 268° (W) 11:20:21 435.910
BY70-1 24 Jan 11:12:44 11:15:53 59° 286° (WNW) 11:18:47 436.1900
BUGSAT 1 24 Jan 11:13:12 11:17:09 55° 73° (ENE) 11:21:05 437.445
Oscar 19 24 Jan 11:14:54 11:18:44 21° 62° (ENE) 11:22:35 437.125/150
CUBEBUG 1 24 Jan 11:30:51 11:35:04 50° 100° (E) 11:39:15 437.445
AO-85 24 Jan 11:51:23 11:55:08 24° 114° (ESE) 11:58:40 145.980
AO-7 24 Jan 11:57:51 12:01:55 15° 41° (NE) 12:05:58 29.400- 29.500
50 SAT 24 Jan 11:58:30 12:01:55 44° 100° (E) 12:05:17 437.505
AISAT 24 Jan 11:59:03 12:03:25 65° 101° (E) 12:07:45 437.250
QB50P1 24 Jan 12:01:59 12:04:17 14° 269° (W) 12:06:34 145.935-145.965
Gurwin Techsat 1B 24 Jan 12:03:47 12:08:24 31° 65° (ENE) 12:13:02 435.225
POLYITAN 1 24 Jan 12:08:15 12:09:59 12° 270° (W) 12:11:44 437.675
QB50P2 24 Jan 12:10:14 12:11:27 11° 271° (W) 12:12:41 145.880/145.840
DANDE 24 Jan 12:23:09 12:28:20 18° 59° (ENE) 12:33:42 436.750
SPROUT 24 Jan 12:27:12 12:31:29 86° 284° (WNW) 12:35:44 437.525
CUSAT 1 24 Jan 12:30:22 12:37:53 42° 69° (ENE) 12:44:40 437.405
VELOX 1 24 Jan 12:32:13 12:36:34 60° 287° (WNW) 12:40:52 145.980
UKube-1 24 Jan 12:39:21 12:43:37 57° 101° (ESE) 12:47:49 .
Cosmos 2491 24 Jan 12:41:14 12:50:05 86° 82° (E) 12:58:56 435.465 / 435.565
ESTCUBE 1 24 Jan 12:41:21 12:44:42 21° 296° (WNW) 12:48:01 437.505/2401.250
AIST 1 24 Jan 12:46:52 12:50:55 39° 92° (E) 12:54:59
YUBILEINY 24 Jan 12:47:42 12:55:40 40° 86° (E) 13:03:41 435.215
DX 1 24 Jan 12:49:16 12:53:38 82° 283° (WNW) 12:57:56 434.975-435.025
BUGSAT 1 24 Jan 12:51:04 12:52:51 13° 269° (W) 12:54:38 437.445
Oscar 19 24 Jan 12:52:33 12:57:38 56° 259° (W) 13:02:47 437.125/150
SO-50 24 Jan 12:59:09 12:59:54 10° 26° (NNE) 13:00:39 436.795
CUBEBUG 1 24 Jan 13:08:09 13:10:58 17° 297° (WNW) 13:13:45 437.445
Cosmos 2504 24 Jan 13:08:17 13:15:16 29° 84° (E) 13:21:54 435.465 / 435.565
BEESAT 24 Jan 13:19:14 13:20:00 10° 88° (E) 13:20:46 436.000
SWISSCUBE 24 Jan 13:20:14 13:22:15 12° 89° (E) 13:24:15 437.505
AO-85 24 Jan 13:30:55 13:35:21 44° 310° (NW) 13:39:30 145.980
50 SAT 24 Jan 13:33:03 13:34:44 13° 296° (WNW) 13:36:25 437.505
AISAT 24 Jan 13:37:01 13:39:22 14° 299° (WNW) 13:41:41 437.250
O/OREOS (USA 219) 24 Jan 13:37:07 13:39:55 16° 50° (NE) 13:42:41 437.305
TISAT 1 24 Jan 13:39:02 13:43:14 83° 105° (ESE) 13:47:25 437.305
Gurwin Techsat 1B 24 Jan 13:43:21 13:48:14 37° 263° (W) 13:53:10 435.225
AO-7 24 Jan 13:44:48 13:52:51 55° 63° (ENE) 14:00:56 29.400- 29.500
ITAMSAT 1 24 Jan 13:45:21 13:50:22 53° 70° (ENE) 13:55:24 435.822/435.867
DANDE 24 Jan 14:04:17 14:12:20 72° 78° (ENE) 14:20:38 436.750
MOZHAYETS 4 24 Jan 14:10:57 14:12:25 11° 88° (E) 14:13:52
CUSAT 1 24 Jan 14:12:24 14:19:52 46° 270° (W) 14:26:33 437.405
UKube-1 24 Jan 14:16:38 14:19:12 16° 298° (WNW) 14:21:43 .
ITUPSAT 1 24 Jan 14:22:12 14:26:49 44° 99° (E) 14:31:25 437.325
AIST 1 24 Jan 14:25:33 14:28:41 19° 290° (WNW) 14:31:50
BEESAT 2 24 Jan 14:35:33 14:37:52 15° 110° (ESE) 14:40:11 435.950
SO-50 24 Jan 14:37:15 14:41:35 42° 48° (NE) 14:45:50 436.795
Cosmos 2491 24 Jan 14:39:45 14:45:45 21° 283° (WNW) 14:51:46 435.465 / 435.565
YUBILEINY 24 Jan 14:43:50 14:52:17 49° 287° (WNW) 15:00:50 435.215
BEESAT 24 Jan 14:53:36 14:58:26 89° 273° (W) 15:03:13 436.000
SWISSCUBE 24 Jan 14:55:46 15:00:35 77° 286° (WNW) 15:05:22 437.505
Cosmos 2504 24 Jan 14:59:41 15:08:09 63° 282° (WNW) 15:16:06 435.465 / 435.565
GOMX 1 24 Jan 15:14:58 15:18:02 16° 62° (ENE) 15:21:01 467.674
O/OREOS (USA 219) 24 Jan 15:15:18 15:19:48 68° 249° (WSW) 15:24:17 437.305
BEESAT 3 24 Jan 15:16:14 15:20:08 87° 304° (NW) 15:24:06 437.485
TISAT 1 24 Jan 15:17:22 15:18:13 11° 301° (WNW) 15:19:05 437.305
ITAMSAT 1 24 Jan 15:26:20 15:30:09 21° 268° (W) 15:33:58 435.822/435.867
BRITE-PL 24 Jan 15:31:57 15:37:27 52° 71° (ENE) 15:42:46 437.365/2234.400
CUTE-I 24 Jan 15:33:02 15:34:36 11° 55° (NE) 15:36:12 437.470
AO-7 24 Jan 15:38:17 15:45:51 37° 262° (W) 15:53:31 29.400- 29.500
MOZHAYETS 4 24 Jan 15:45:28 15:50:08 79° 284° (WNW) 15:54:47
DANDE 24 Jan 15:47:54 15:54:28 28° 275° (W) 16:01:12 436.750
KKS-1 24 Jan 15:51:37 15:55:43 36° 98° (E) 15:59:48 437.445
LilacSat-2 24 Jan 15:57:47 15:59:11 12° 62° (ENE) 16:00:34 437.200
HORYU 2 24 Jan 16:00:19 16:04:25 40° 70° (ENE) 16:08:34 437.375
ITUPSAT 1 24 Jan 16:00:38 16:04:22 23° 296° (WNW) 16:08:06 437.325
NOAA 15 24 Jan 16:06:54 16:10:59 23° 62° (ENE) 16:15:06 137.62
BEESAT 2 24 Jan 16:11:19 16:15:12 54° 309° (NW) 16:19:09 435.950
Cubesat XI-IV 24 Jan 16:14:34 16:18:49 25° 63° (ENE) 16:23:06 437.490
HO-68 24 Jan 16:17:38 16:19:51 12° 45° (NE) 16:22:04 435.675
SO-50 24 Jan 16:18:11 16:21:49 24° 247° (WSW) 16:25:24 436.795
M-CUBED/EXP-1 PRIME 24 Jan 16:28:24 16:31:44 79° 110° (ESE) 16:34:58 437.505
STARS 24 Jan 16:31:38 16:35:50 44° 99° (E) 16:40:00 437.465
BEESAT 24 Jan 16:33:38 16:35:28 12° 302° (WNW) 16:37:18 436.000
SWISSCUBE 24 Jan 16:36:39 16:37:32 10° 304° (NW) 16:38:24 437.505
CUBESAT XI-V 24 Jan 16:43:44 16:48:26 67° 101° (E) 16:53:03 437.345
GOMX 1 24 Jan 16:50:16 16:55:35 76° 258° (WSW) 17:00:37 467.674
YUBILEINY 24 Jan 16:51:30 16:51:49 10° 312° (NW) 16:52:08 435.215
NOAA 18 24 Jan 16:56:16 17:01:09 34° 65° (ENE) 17:06:02 137.9125
BEESAT 3 24 Jan 16:56:22 16:58:21 13° 324° (NW) 17:00:23 437.485
Cosmos 2504 24 Jan 16:59:42 17:03:14 13° 304° (NW) 17:06:42 435.465 / 435.565
AUBIESAT-1 24 Jan 17:01:05 17:04:18 47° 292° (WNW) 17:07:28 437.475
DOVE 4 24 Jan 17:05:46 17:10:35 65° 74° (ENE) 17:15:08 437.250
CUTE-I 24 Jan 17:08:27 17:13:43 72° 73° (ENE) 17:19:02 437.470
Cosmos 2499 24 Jan 17:11:23 17:15:18 14° 77° (ENE) 17:19:05 435.465 / 435.565
BRITE-PL 24 Jan 17:11:32 17:16:06 25° 268° (W) 17:20:36 437.365/2234.400
AIST 2 24 Jan 17:14:54 17:17:22 15° 110° (ESE) 17:19:50 435.215
MOZHAYETS 4 24 Jan 17:25:56 17:26:29 10° 303° (WNW) 17:27:01
KKS-1 24 Jan 17:28:35 17:32:05 23° 295° (WNW) 17:35:35 437.445
LilacSat-2 24 Jan 17:29:14 17:32:58 59° 260° (W) 17:36:45 437.200
HORYU 2 24 Jan 17:37:51 17:41:08 20° 267° (W) 17:44:26 437.375
GONETS M04 24 Jan 17:38:31 17:44:17 20° 77° (ENE) 17:50:05
NOAA 15 24 Jan 17:45:14 17:50:24 53° 260° (W) 17:55:37 137.62
BEESAT 2 24 Jan 17:53:29 17:53:54 10° 329° (NNW) 17:54:19 435.950
Cubesat XI-IV 24 Jan 17:53:30 17:58:36 47° 261° (W) 18:03:45 437.490
HO-68 24 Jan 17:59:03 18:05:57 52° 66° (ENE) 18:12:53 435.675
CUTE 1.7 + AOD 2 24 Jan 17:59:07 18:02:49 30° 69° (ENE) 18:06:33 437.475
CINEMA 3 24 Jan 18:00:22 18:04:36 54° 73° (ENE) 18:08:42 145.822/145.860
STARS 24 Jan 18:08:44 18:11:52 19° 296° (WNW) 18:14:59 437.465
CUBESAT XI-V 24 Jan 18:22:33 18:25:15 15° 299° (WNW) 18:27:57 437.345
CUBEBUG 2 24 Jan 18:23:52 18:27:09 23° 67° (ENE) 18:30:26 437.445
COMPASS 1 24 Jan 18:26:36 18:30:06 26° 68° (ENE) 18:33:38 437.405
CANX-2 24 Jan 18:28:45 18:32:59 72° 75° (ENE) 18:37:17 2200.000
SEEDS 24 Jan 18:29:55 18:33:55 42° 71° (ENE) 18:37:57 437.485
AAUSAT CUBESAT 2 24 Jan 18:33:04 18:36:26 24° 67° (ENE) 18:39:49 437.432
NOAA 18 24 Jan 18:36:44 18:41:45 36° 262° (W) 18:46:47 137.9125
UWE-3 24 Jan 18:42:05 18:45:21 23° 67° (ENE) 18:48:39 435.000/436.395/437.385
DOVE 4 24 Jan 18:46:03 18:48:38 14° 270° (W) 18:51:09 437.250
STRAND 1 24 Jan 18:46:13 18:50:58 36° 97° (E) 18:55:41 437.568
ZACube-1 24 Jan 18:50:26 18:53:13 18° 64° (ENE) 18:56:02 437.345
CUTE-I 24 Jan 18:51:14 18:54:18 15° 270° (W) 18:57:23 437.470
AIST 2 24 Jan 18:51:18 18:55:22 57° 308° (NW) 18:59:31 435.215
Cosmos 2499 24 Jan 18:58:57 19:07:13 77° 95° (E) 19:14:53 435.465 / 435.565
Oscar 11 24 Jan 19:16:41 19:20:23 29° 68° (ENE) 19:24:07 145.826/435.025
GONETS M04 24 Jan 19:31:08 19:39:51 88° 275° (W) 19:48:43
CUTE 1.7 + AOD 2 24 Jan 19:35:03 19:38:38 26° 266° (W) 19:42:15 437.475
CINEMA 3 24 Jan 19:39:47 19:42:02 14° 269° (W) 19:44:18 145.822/145.860
HO-68 24 Jan 19:47:32 19:53:54 33° 264° (W) 20:00:18 435.675
HUMSAT D 24 Jan 19:54:47 19:57:02 14° 62° (ENE) 19:59:20 437.325/437.525
FUNcube-1 24 Jan 19:58:56 20:03:04 86° 76° (ENE) 20:07:18 145.935
CUBEBUG 2 24 Jan 19:59:56 20:03:37 31° 264° (W) 20:07:22 437.445
COMPASS 1 24 Jan 20:01:54 20:05:34 29° 265° (W) 20:09:15 437.405
SEEDS 24 Jan 20:06:52 20:09:48 18° 268° (W) 20:12:45 437.485
AAUSAT CUBESAT 2 24 Jan 20:08:01 20:11:45 31° 264° (W) 20:15:31 437.432
CANX-2 24 Jan 20:08:12 20:09:20 11° 272° (W) 20:10:28 2200.000
UWE-3 24 Jan 20:17:58 20:21:41 32° 264° (W) 20:25:25 435.000/436.395/437.385
AO-85 24 Jan 20:20:43 20:24:11 28° 45° (NE) 20:27:36 145.980
ZACube-1 24 Jan 20:25:13 20:29:11 44° 262° (W) 20:33:12 437.345
STRAND 1 24 Jan 20:25:34 20:30:02 31° 295° (WNW) 20:34:29 437.568
ISS 24 Jan 20:26:02 20:29:12 47° 142° (SE) 20:32:21 145.825
AIST 2 24 Jan 20:33:28 20:34:46 11° 329° (NNW) 20:36:04 435.215
DELFI C3 24 Jan 20:41:21 20:45:21 79° 76° (ENE) 20:49:24 145.870
Oscar 11 24 Jan 20:52:45 20:56:28 28° 265° (W) 21:00:13 145.826/435.025
RS-15 24 Jan 20:53:01 21:01:21 23° 98° (E) 21:09:49 29.354- 29.394
Cosmos 2499 24 Jan 20:54:56 21:01:06 23° 295° (WNW) 21:06:59 435.465 / 435.565
PRISM 24 Jan 21:22:51 21:26:59 79° 105° (ESE) 21:31:02 437.425
BY70-1 24 Jan 21:27:34 21:30:20 28° 70° (ENE) 21:33:12 436.1900
HUMSAT D 24 Jan 21:28:08 21:32:10 56° 260° (W) 21:36:19 437.325/437.525
GONETS M04 24 Jan 21:31:54 21:38:04 21° 300° (WNW) 21:44:17
UNISAT 6 24 Jan 21:40:36 21:44:51 41° 98° (E) 21:49:10 437.425
TIGRISAT 24 Jan 21:52:17 21:56:40 50° 100° (E) 22:01:06 435.000
BEESAT 3 24 Jan 21:55:23 21:57:30 14° 36° (NE) 21:59:37 437.485
VELOX 1 24 Jan 21:56:09 21:58:54 16° 62° (ENE) 22:01:38 145.980
AO-85 24 Jan 22:01:08 22:04:32 28° 244° (WSW) 22:07:55 145.980
ISS 24 Jan 22:02:45 22:05:45 33° 341° (NNW) 22:08:46 145.825
ESTCUBE 1 24 Jan 22:04:29 22:08:51 49° 71° (ENE) 22:13:15 437.505/2401.250
ANTELSAT 24 Jan 22:08:45 22:13:16 80° 105° (ESE) 22:17:50 437.575/2403.000
DX 1 24 Jan 22:12:58 22:14:37 12° 59° (ENE) 22:16:17 434.975-435.025
JAS-2 24 Jan 22:15:20 22:22:18 42° 97° (E) 22:29:37 435.910
CUBEBUG 1 24 Jan 22:27:51 22:32:06 50° 72° (ENE) 22:36:22 437.445
50 SAT 24 Jan 22:34:43 22:37:37 23° 68° (ENE) 22:40:32 437.505
POPSAT HIP 1 24 Jan 22:35:48 22:38:13 15° 91° (E) 22:40:39 437.405
DUCHIFAT 1 24 Jan 22:40:20 22:42:38 14° 91° (E) 22:44:56 145.980
PCSat 24 Jan 22:46:52 22:51:32 31° 110° (ESE) 22:56:14 145.827
NANOSAT C BR1 24 Jan 22:47:58 22:51:00 19° 93° (E) 22:54:02 145.865
BEESAT 2 24 Jan 22:50:31 22:53:31 19° 41° (NE) 22:56:29 435.950
AIST 1 24 Jan 22:53:48 22:55:31 12° 66° (ENE) 22:57:13
YUBILEINY 24 Jan 22:55:57 23:02:25 22° 60° (ENE) 23:08:49 435.215
AISAT 24 Jan 22:57:23 23:01:47 69° 74° (ENE) 23:06:12 437.250
BY70-1 24 Jan 22:58:35 23:00:36 16° 268° (W) 23:02:40 436.1900
RS-15 24 Jan 22:59:58 23:11:52 83° 121° (ESE) 23:24:16 29.354- 29.394
PRISM 24 Jan 23:00:39 23:01:37 11° 301° (WNW) 23:02:35 437.425
PHONESAT 2.4 24 Jan 23:17:28 23:17:53 10° 157° (SSE) 23:18:19 2401.200-2431.200
UNISAT 6 24 Jan 23:17:53 23:21:19 22° 294° (WNW) 23:24:48 437.425
SPROUT 24 Jan 23:21:38 23:25:53 86° 75° (ENE) 23:30:09 437.525
TIGRISAT 24 Jan 23:29:56 23:32:59 18° 296° (WNW) 23:36:05 435.000
VELOX 1 24 Jan 23:30:32 23:34:54 57° 259° (W) 23:39:18 145.980
BEESAT 3 24 Jan 23:31:42 23:35:44 87° 57° (ENE) 23:39:43 437.485
UKube-1 24 Jan 23:34:54 23:39:08 58° 73° (ENE) 23:43:24 .
ISS 24 Jan 23:40:18 23:42:53 21° 1° (N) 23:45:27 145.825
QB50P1 24 Jan 23:42:36 23:46:52 81° 105° (ESE) 23:51:05 145.935-145.965
ESTCUBE 1 24 Jan 23:42:50 23:45:54 18° 268° (W) 23:49:01 437.505/2401.250
DX 1 24 Jan 23:45:48 23:50:11 79° 256° (WSW) 23:54:34 434.975-435.025
ANTELSAT 24 Jan 23:47:30 23:49:22 12° 300° (WNW) 23:51:14 437.575/2403.000
POLYITAN 1 24 Jan 23:48:25 23:52:41 87° 279° (W) 23:56:56 437.675
QB50P2 24 Jan 23:49:52 23:54:08 78° 284° (WNW) 23:58:22 145.880/145.840
Cosmos 2491 24 Jan 23:51:03 23:56:50 20° 77° (ENE) 00:02:38 435.465 / 435.565
JAS-2 25 Jan 00:00:24 00:07:17 46° 293° (WNW) 00:14:36 435.910
CUBEBUG 1 25 Jan 00:05:53 00:08:40 16° 269° (W) 00:11:27 437.445
50 SAT 25 Jan 00:07:51 00:10:45 23° 265° (W) 00:13:40 437.505
POPSAT HIP 1 25 Jan 00:10:11 00:14:18 51° 287° (WNW) 00:18:25 437.405
DUCHIFAT 1 25 Jan 00:14:31 00:18:38 53° 287° (WNW) 00:22:43 145.980
NANOSAT C BR1 25 Jan 00:22:56 00:26:53 39° 289° (WNW) 00:30:49 145.865
BEESAT 25 Jan 00:25:54 00:28:47 16° 60° (ENE) 00:31:42 436.000
BEESAT 2 25 Jan 00:27:38 00:31:38 56° 239° (WSW) 00:35:33 435.950
SWISSCUBE 25 Jan 00:27:39 00:30:54 19° 62° (ENE) 00:34:11 437.505
BUGSAT 1 25 Jan 00:28:19 00:32:23 79° 103° (ESE) 00:36:28 437.445
AIST 1 25 Jan 00:29:22 00:33:36 65° 264° (W) 00:37:47
PCSat 25 Jan 00:29:37 00:34:46 43° 309° (NW) 00:39:57 145.827
TISAT 1 25 Jan 00:31:39 00:35:48 74° 75° (ENE) 00:39:59 437.305
AISAT 25 Jan 00:36:54 00:38:43 12° 271° (W) 00:40:30 437.250
PHONESAT 2.4 25 Jan 00:49:12 00:51:09 26° 173° (S) 00:53:05 2401.200-2431.200
Cosmos 2504 25 Jan 00:50:47 00:57:56 51° 75° (ENE) 01:04:52 435.465 / 435.565
YUBILEINY 25 Jan 00:51:37 01:00:30 89° 265° (W) 01:09:16 435.215
Oscar 19 25 Jan 01:02:31 01:07:29 45° 99° (E) 01:12:23 437.125/150
UKube-1 25 Jan 01:13:18 01:15:32 14° 269° (W) 01:17:48 .
MOZHAYETS 4 25 Jan 01:14:03 01:16:28 14° 60° (ENE) 01:18:53
RS-15 25 Jan 01:14:36 01:25:50 41° 328° (NNW) 01:37:21 29.354- 29.394
ISS 25 Jan 01:16:55 01:19:59 37° 21° (NNE) 01:23:02 145.825
QB50P1 25 Jan 01:20:49 01:21:59 11° 300° (WNW) 01:23:08 145.935-145.965
ITUPSAT 1 25 Jan 01:30:10 01:34:52 61° 72° (ENE) 01:39:36 437.325
CUSAT 1 25 Jan 01:32:55 01:37:59 32° 85° (E) 01:44:05 437.405
AIST 2 25 Jan 01:33:15 01:36:32 21° 41° (NE) 01:39:48 435.215
M-CUBED/EXP-1 PRIME 25 Jan 01:43:04 01:45:12 14° 59° (ENE) 01:47:17 437.505
Cosmos 2491 25 Jan 01:43:44 01:52:27 87° 276° (W) 02:01:15 435.465 / 435.565
AO-7 25 Jan 01:47:21 01:51:03 13° 86° (E) 01:54:44 29.400- 29.500
JAS-2 25 Jan 01:49:54 01:50:41 10° 312° (NW) 01:51:29 435.910
Gurwin Techsat 1B 25 Jan 01:57:20 02:02:41 78° 103° (ESE) 02:08:00 435.225
ITAMSAT 1 25 Jan 01:57:46 02:01:00 16° 90° (E) 02:04:13 435.822/435.867
BEESAT 25 Jan 02:01:19 02:06:02 66° 258° (WSW) 02:10:48 436.000
SWISSCUBE 25 Jan 02:03:36 02:08:16 56° 259° (W) 02:12:59 437.505
BUGSAT 1 25 Jan 02:06:23 02:07:09 10° 300° (WNW) 02:07:55 437.445
TISAT 1 25 Jan 02:11:50 02:11:56 10° 271° (W) 02:12:02 437.305
AUBIESAT-1 25 Jan 02:14:04 02:17:16 23° 62° (ENE) 02:20:18 437.475
PCSat 25 Jan 02:18:00 02:19:39 11° 331° (NNW) 02:21:18 145.827
PHONESAT 2.4 25 Jan 02:22:37 02:24:32 25° 189° (S) 02:26:28 2401.200-2431.200
Oscar 19 25 Jan 02:42:23 02:46:32 25° 297° (WNW) 02:50:40 437.125/150
Cosmos 2504 25 Jan 02:44:49 02:50:53 29° 276° (W) 02:56:51 435.465 / 435.565
MOZHAYETS 4 25 Jan 02:48:29 02:53:02 71° 258° (WSW) 02:57:40
YUBILEINY 25 Jan 02:50:22 02:55:58 19° 284° (WNW) 03:01:34 435.215
KKS-1 25 Jan 02:50:52 02:55:02 41° 70° (ENE) 02:59:12 437.445
ISS 25 Jan 02:53:25 02:56:28 38° 219° (SW) 02:59:31 145.825
ITUPSAT 1 25 Jan 03:10:18 03:13:06 16° 269° (W) 03:15:57 437.325
AIST 2 25 Jan 03:11:09 03:15:19 55° 240° (WSW) 03:19:27 435.215
CUSAT 1 25 Jan 03:13:55 03:19:33 47° 290° (WNW) 03:26:32 437.405
DANDE 25 Jan 03:14:33 03:18:52 62° 95° (E) 03:24:43 436.750
M-CUBED/EXP-1 PRIME 25 Jan 03:15:07 03:19:20 61° 253° (WSW) 03:23:14 437.505
STARS 25 Jan 03:29:25 03:33:36 48° 71° (ENE) 03:37:49 437.465
RS-15 25 Jan 03:32:44 03:42:55 28° 2° (N) 03:53:04 29.354- 29.394
ITAMSAT 1 25 Jan 03:35:45 03:40:56 67° 288° (WNW) 03:46:07 435.822/435.867
AO-7 25 Jan 03:36:55 03:45:19 70° 106° (ESE) 03:53:36 29.400- 29.500
BRITE-PL 25 Jan 03:38:00 03:39:51 12° 86° (E) 03:41:38 437.365/2234.400
Gurwin Techsat 1B 25 Jan 03:38:46 03:41:59 16° 302° (WNW) 03:45:12 435.225
Cosmos 2491 25 Jan 03:44:36 03:50:41 20° 301° (WNW) 03:56:49 435.465 / 435.565
GONETS M04 25 Jan 03:46:51 03:48:44 11° 49° (NE) 03:50:37
AUBIESAT-1 25 Jan 03:47:48 03:51:33 32° 257° (WSW) 03:55:04 437.475
CUBESAT XI-V 25 Jan 03:48:03 03:52:44 76° 75° (ENE) 03:57:29 437.345
O/OREOS (USA 219) 25 Jan 03:53:27 03:54:36 11° 97° (E) 03:55:46 437.305
KKS-1 25 Jan 04:28:27 04:31:45 20° 267° (W) 04:35:04 437.445
Cosmos 2499 25 Jan 04:49:04 04:54:56 27° 67° (ENE) 05:00:44 435.465 / 435.565
GOMX 1 25 Jan 04:51:31 04:55:06 25° 94° (E) 04:58:35 467.674
DANDE 25 Jan 04:59:13 05:02:32 18° 303° (WNW) 05:06:28 436.750
LilacSat-2 25 Jan 05:02:19 05:04:16 13° 91° (E) 05:06:12 437.200
DOVE 4 25 Jan 05:04:44 05:06:42 13° 90° (E) 05:08:38 437.250
STARS 25 Jan 05:07:20 05:10:13 17° 268° (W) 05:13:05 437.465
BRITE-PL 25 Jan 05:14:15 05:19:00 69° 286° (WNW) 05:23:21 437.365/2234.400
ITAMSAT 1 25 Jan 05:18:38 05:19:26 10° 306° (NW) 05:20:14 435.822/435.867
NOAA 18 25 Jan 05:18:54 05:20:31 11° 87° (E) 05:22:08 137.9125
CUTE-I 25 Jan 05:24:25 05:28:48 25° 94° (E) 05:33:10 437.470
HORYU 2 25 Jan 05:25:34 05:30:01 65° 102° (ESE) 05:34:28 437.375
CUBESAT XI-V 25 Jan 05:28:48 05:30:39 12° 272° (W) 05:32:32 437.345
O/OREOS (USA 219) 25 Jan 05:28:51 05:33:19 77° 294° (WNW) 05:37:48 437.305
AO-7 25 Jan 05:30:27 05:37:27 31° 306° (NW) 05:44:26 29.400- 29.500
GONETS M04 25 Jan 05:39:35 05:48:10 51° 74° (ENE) 05:56:42
RS-15 25 Jan 05:47:57 05:59:43 45° 36° (NE) 06:11:08 29.354- 29.394
CINEMA 3 25 Jan 05:55:25 05:56:28 11° 89° (E) 05:57:32 145.822/145.860
NOAA 15 25 Jan 05:58:40 06:03:51 52° 100° (E) 06:09:00 137.62
STRAND 1 25 Jan 06:03:26 06:08:26 60° 72° (ENE) 06:13:29 437.568
Cubesat XI-IV 25 Jan 06:08:47 06:14:06 61° 102° (ESE) 06:19:22 437.490
CANX-2 25 Jan 06:14:27 06:15:51 11° 88° (E) 06:17:15 2200.000
GOMX 1 25 Jan 06:29:29 06:33:13 29° 293° (WNW) 06:36:50 467.674
SO-50 25 Jan 06:32:26 06:37:08 73° 122° (ESE) 06:41:47 436.795
LilacSat-2 25 Jan 06:35:03 06:38:49 48° 287° (WNW) 06:42:34 437.200
DOVE 4 25 Jan 06:40:43 06:44:47 54° 287° (WNW) 06:48:49 437.250
Cosmos 2499 25 Jan 06:41:36 06:48:31 57° 268° (W) 06:55:24 435.465 / 435.565
NOAA 18 25 Jan 06:56:28 07:01:58 84° 105° (ESE) 07:07:26 137.9125
HORYU 2 25 Jan 07:03:35 07:06:03 15° 299° (WNW) 07:08:30 437.375
CUTE-I 25 Jan 07:03:57 07:09:02 45° 291° (WNW) 07:14:06 437.470
O/OREOS (USA 219) 25 Jan 07:12:23 07:13:32 11° 314° (NW) 07:14:42 437.305
HO-68 25 Jan 07:12:25 07:19:18 46° 99° (E) 07:26:07 435.675
CUTE 1.7 + AOD 2 25 Jan 07:17:31 07:21:41 47° 99° (E) 07:25:48 437.475
CINEMA 3 25 Jan 07:29:49 07:34:03 72° 285° (WNW) 07:38:25 145.822/145.860
PCSat 25 Jan 07:32:30 07:37:32 37° 49° (NE) 07:42:32 145.827
GONETS M04 25 Jan 07:36:50 07:44:44 38° 275° (W) 07:52:37
NOAA 15 25 Jan 07:39:09 07:43:17 24° 298° (WNW) 07:47:24 137.62
COMPASS 1 25 Jan 07:42:30 07:46:27 38° 97° (E) 07:50:22 437.405
STRAND 1 25 Jan 07:44:39 07:48:01 18° 269° (W) 07:51:24 437.568
FUNcube-1 25 Jan 07:46:13 07:48:54 16° 91° (E) 07:51:35 145.935
SEEDS 25 Jan 07:47:26 07:51:41 68° 101° (E) 07:55:54 437.485
CANX-2 25 Jan 07:47:53 07:52:11 69° 285° (WNW) 07:56:26 2200.000
CUBEBUG 2 25 Jan 07:48:04 07:52:17 43° 99° (E) 07:56:37 437.445
AAUSAT CUBESAT 2 25 Jan 07:48:14 07:52:04 34° 96° (E) 07:55:51 437.432
Cubesat XI-IV 25 Jan 07:49:51 07:53:42 21° 299° (WNW) 07:57:33 437.490
RS-15 25 Jan 08:00:57 08:13:13 73° 242° (WSW) 08:25:00 29.354- 29.394
UWE-3 25 Jan 08:04:59 08:09:12 42° 98° (E) 08:13:32 435.000/436.395/437.385
ZACube-1 25 Jan 08:11:33 08:15:30 30° 96° (E) 08:19:29 437.345
PRISM 25 Jan 08:13:06 08:17:14 68° 73° (ENE) 08:21:23 437.425
SO-50 25 Jan 08:14:36 08:18:04 20° 322° (NW) 08:21:32 436.795
JAS-2 25 Jan 08:31:48 08:35:35 19° 55° (NE) 08:39:39 435.910
Oscar 11 25 Jan 08:37:36 08:41:50 46° 99° (E) 08:46:01 145.826/435.025
NOAA 18 25 Jan 08:38:45 08:41:55 16° 303° (WNW) 08:45:05 137.9125
UNISAT 6 25 Jan 08:40:57 08:44:56 41° 71° (ENE) 08:48:58 437.425
TIGRISAT 25 Jan 08:52:25 08:56:31 50° 72° (ENE) 09:00:40 435.000
CUTE 1.7 + AOD 2 25 Jan 08:54:16 08:57:10 18° 296° (WNW) 09:00:02 437.475
HO-68 25 Jan 09:00:24 09:06:52 38° 298° (WNW) 09:13:20 435.675
ANTELSAT 25 Jan 09:08:56 09:13:10 82° 77° (ENE) 09:17:29 437.575/2403.000
HUMSAT D 25 Jan 09:10:19 09:13:36 21° 93° (E) 09:16:51 437.325/437.525
QB50P2 25 Jan 09:12:20 09:12:35 10° 59° (ENE) 09:12:51 145.880/145.840
PCSat 25 Jan 09:15:57 09:20:56 37° 248° (WSW) 09:25:53 145.827
COMPASS 1 25 Jan 09:18:39 09:21:45 20° 295° (WNW) 09:24:49 437.405
FUNcube-1 25 Jan 09:21:05 09:25:26 55° 287° (WNW) 09:29:50 145.935
AAUSAT CUBESAT 2 25 Jan 09:24:06 09:27:21 22° 294° (WNW) 09:30:34 437.432
SEEDS 25 Jan 09:24:53 09:26:50 13° 299° (WNW) 09:28:46 437.485
CUBEBUG 2 25 Jan 09:25:25 09:28:39 20° 294° (WNW) 09:31:55 437.445
POPSAT HIP 1 25 Jan 09:30:12 09:32:29 14° 62° (ENE) 09:34:47 437.405
DUCHIFAT 1 25 Jan 09:34:10 09:36:16 14° 62° (ENE) 09:38:24 145.980
NANOSAT C BR1 25 Jan 09:41:51 09:44:40 18° 64° (ENE) 09:47:31 145.865
UWE-3 25 Jan 09:42:06 09:45:25 21° 294° (WNW) 09:48:46 435.000/436.395/437.385
ZACube-1 25 Jan 09:47:55 09:51:41 28° 292° (WNW) 09:55:31 437.345
DELFI C3 25 Jan 09:51:44 09:55:44 76° 284° (WNW) 09:59:40 145.870
PRISM 25 Jan 09:51:46 09:52:58 11° 271° (W) 09:54:09 437.425
Cosmos 2491 25 Jan 09:59:30 10:01:23 11° 49° (NE) 10:03:15 435.465 / 435.565
BY70-1 25 Jan 10:01:21 10:02:18 11° 90° (E) 10:03:14 436.1900
JAS-2 25 Jan 10:14:19 10:19:48 77° 257° (WSW) 10:26:00 435.910
Oscar 11 25 Jan 10:14:36 10:17:37 19° 296° (WNW) 10:20:37 145.826/435.025
RS-15 25 Jan 10:16:10 10:23:20 18° 265° (W) 10:30:23 29.354- 29.394
UNISAT 6 25 Jan 10:18:52 10:21:51 18° 268° (W) 10:24:52 437.425
TIGRISAT 25 Jan 10:31:05 10:33:32 15° 269° (W) 10:36:00 435.000
QB50P1 25 Jan 10:36:05 10:40:15 72° 75° (ENE) 10:44:27 145.935-145.965
POLYITAN 1 25 Jan 10:42:04 10:46:14 84° 75° (ENE) 10:50:27 437.675
QB50P2 25 Jan 10:43:30 10:47:42 88° 259° (W) 10:51:56 145.880/145.840
HUMSAT D 25 Jan 10:45:19 10:49:18 38° 290° (WNW) 10:53:18 437.325/437.525
Oscar 19 25 Jan 10:45:33 10:47:22 12° 56° (NE) 10:49:11 437.125/150
AISAT 25 Jan 10:48:16 10:49:35 11° 89° (E) 10:50:54 437.250
